Regional Weather Roundup
Issued by NWS Cleveland, OH

Home | Current Version | Previous Version | Graphics & Text | Print | Product List | Glossary On
Versions: 1 2 3 4 5 6 7 8 9 10 11 12 13 14 15 16 17 18 19 20 21 22 23 24 25 26 27 28 29 30 31 32 33 34 35 36 37 38 39 40 41 42 43 44 45 46 47 48 49 50
000
ASUS41 KCLE 070310
RWRCLE
OHIO REGIONAL WEATHER ROUNDUP
NATIONAL WEATHER SERVICE CLEVELAND, OH
1100 PM EDT WED MAY 06 2015

NOTE: "FAIR" INDICATES FEW OR NO CLOUDS BELOW 12,000 FEET WITH NO
SIGNIFICANT WEATHER AND/OR OBSTRUCTIONS TO VISIBILITY.

OHZ001>008-015>018-024>027-034-035-043-044-070400-
   NORTHWEST OHIO

CITY           SKY/WX    TMP DP  RH WIND       PRES   REMARKS
DEFIANCE       CLEAR     62  57  83 E8        30.16S
FINDLAY        CLEAR     63  56  78 E7        30.16R
TOLEDO EXPRESS CLEAR     58  54  86 E5        30.17S
TOLEDO EXEC    CLEAR     57  52  83 E5        30.18S
LIMA           CLEAR     64  59  83 E8        30.16R
$$

OHZ009>014-019>023-028>033-038-089-070400-
   NORTHEAST OHIO

CITY           SKY/WX    TMP DP  RH WIND       PRES   REMARKS
CLE-HOPKINS    PTCLDY    58  54  86 CALM      30.20R
CLE-LAKEFRONT  PTCLDY    53  51  93 CALM      30.17S FOG
CUY CO. ARPT   PTCLDY    61  57  88 SE6       30.18R
LORAIN-ELYRIA  CLEAR     57  54  89 NE3       30.19R
ASHTABULA      CLEAR     55  54  96 CALM      30.19S
AKRON-CANTON   CLEAR     65  56  72 N5        30.18R
WOOSTER        CLEAR     59  55  87 CALM      30.18S
MANSFIELD      CLEAR     62  58  86 NE5       30.18R
YOUNGSTOWN     PTCLDY    62  56  80 CALM      30.18S
$$

OHZ042-051>053-060>062-070>072-077>081-070400-
  SOUTHWEST OHIO

CITY           SKY/WX    TMP DP  RH WIND       PRES   REMARKS
CINC-COVINGTON CLEAR     67  54  63 CALM      30.13R
CINC-LUNKEN    CLEAR     63  58  83 CALM      30.13R
HAMILTON       CLEAR     63  57  81 CALM      30.13R
DAYTON         CLEAR     69  57  65 E7        30.15R
WRIGHT-PAT AFB CLEAR     67  60  78 CALM      30.14R
DAYTON GENERAL CLEAR     68  55  63 E5        30.13R
WILMINGTON     CLEAR     70  51  51 NE5       30.14R
$$

OHZ036-037-039>041-045>050-054>059-063>069-073>076-082>088-070400-
  CENTRAL AND SOUTHEAST OHIO

CITY           SKY/WX    TMP DP  RH WIND       PRES   REMARKS
COLUMBUS       CLEAR     70  56  61 NE5       30.13R
OSU AIRPORT    CLEAR     68  56  65 NE6       30.14R
BOLTON FIELD   CLEAR     71  57  62 N5        30.15R
RICKENBACK AFB CLEAR     67  55  63 NE7       30.13S
NEWARK         CLEAR     64  58  80 NW3       30.15R
MARION         CLEAR     64  58  80 NE5       30.16R
LANCASTER      CLEAR     64  56  75 CALM      30.14R
ZANESVILLE     CLEAR     68  57  68 CALM      30.15R
NEW PHILLY     CLEAR     67  59  75 CALM      30.17R
$$



USA.gov is the U.S. government's official web portal to all federal, state and local government web resources and services.